Flag for U.S.A. Weather past 2 weeks in Washington DC, District of Columbia, U.S.A.

Now
84 °F

Broken clouds.


Feels Like: 87 °F
Forecast: 72 / 89 °F
Wind: No wind

Location: Reagan National Airport

Current Time: May 27, 2015 at 7:12:43 PM

Latest Report: May 27, 2015 at 6:52 PM


Visibility: 10 mi

Pressure: 30.12 "Hg

Humidity: 57%

Dew point: 67 °F

Location of Washington DCLocation

Historic Weather in Washington DC — Graph

°F

Washington DC temperature yesterday

Maximum temperature yesterday: 87 °F (at 2:52 PM)
Minimum temperature yesterday: 69 °F (at 4:52 AM)
Average temperature yesterday: 78 °F

Past Weeks' High & Low Weather Summary

 TemperatureHumidityPressure
High89 °F (May 18, 11:52 AM)91% (May 18, 11:52 PM)30.47 "Hg (May 18, 11:52 PM)
Low53 °F (May 21, 1:52 PM)22% (May 23, 2:52 PM)29.83 "Hg (May 19, 6:52 PM)
Average71 °F57%30.16 "Hg
* Reported May 12 5:52 PM — May 27 5:52 PM, Washington DC, Weather by CustomWeather, © 2015

Note: Actual official high and low records may vary slightly from our data, if they occured in-between our weather recording intervals... More about our weather records

Advertising

Washington DC weather history for previous 24 hours

 ConditionsComfort  
Time TempWeatherWind HumidityBarometerVisibility
5:52 PM
Wed, May 27
83 °FBroken clouds.7 mph59%30.11 "Hg10 mi
4:52 PM80 °FPartly sunny.9 mph62%30.12 "Hg10 mi
4:04 PM81 °FPartly sunny.14 mph62%30.13 "Hg10 mi
3:52 PM82 °FPartly sunny.18 mph56%30.13 "Hg10 mi
2:52 PM89 °FBroken clouds.14 mph50%30.11 "Hg10 mi
1:52 PM89 °FBroken clouds.15 mph48%30.13 "Hg10 mi
12:52 PM87 °FScattered clouds.14 mph53%30.15 "Hg10 mi
11:52 AM83 °FScattered clouds.10 mph68%30.16 "Hg10 mi
10:52 AM81 °FBroken clouds.12 mph69%30.16 "Hg10 mi
9:52 AM78 °FMostly cloudy.10 mph76%30.17 "Hg10 mi
8:52 AM77 °FOvercast.10 mph77%30.18 "Hg10 mi
7:52 AM76 °FMostly cloudy.12 mph80%30.17 "Hg10 mi
6:57 AM75 °FScattered clouds.10 mph83%30.16 "Hg10 mi
5:52 AM76 °FPassing clouds.12 mph80%30.14 "Hg10 mi
4:52 AM76 °FOvercast.8 mph80%30.14 "Hg10 mi
3:52 AM75 °FMostly cloudy.9 mph79%30.14 "Hg10 mi
2:52 AM75 °FPassing clouds.9 mph79%30.15 "Hg10 mi
1:52 AM76 °FPartly cloudy.8 mph74%30.16 "Hg10 mi
12:52 AM76 °FPassing clouds.9 mph74%30.16 "Hg10 mi
11:52 PM
Tue, May 26
77 °FPassing clouds.10 mph71%30.16 "Hg10 mi
10:52 PM79 °FPartly cloudy.10 mph69%30.16 "Hg10 mi
9:52 PM79 °FPassing clouds.8 mph74%30.15 "Hg10 mi
8:52 PM80 °FBroken clouds.8 mph69%30.14 "Hg10 mi
7:52 PM81 °FBroken clouds.8 mph67%30.13 "Hg10 mi
Weather by CustomWeather, © 2015

See weather overviewHow to use our weather pages